Weather History for Vicksburg, MS

Change the Weather History Date:

Saturday, May 4, 2013

  Actual Average Record
Temperature  
Mean Temperature 54 °F 70 °F  
Max Temperature 71 °F 81 °F 91 °F (2003)
Min Temperature 37 °F 58 °F 37 °F (2013)
Degree Days  
Heating Degree Days 11 1  
Month to date heating degree days 24 4  
Since 1 July heating degree days 2304 2345  
Cooling Degree Days 0 5  
Month to date cooling degree days 7 20  
Year to date cooling degree days 129 138  
Growing Degree Days 3 (Base 50)    
Moisture  
Dew Point 41 °F    
Average Humidity 62    
Maximum Humidity 93    
Minimum Humidity 31    
Precipitation  
Precipitation T in 0.18 in 3.57 in (1991)
Month to date precipitation 1.82 0.71  
Year to date precipitation 32.06 21.05  
Sea Level Pressure  
Sea Level Pressure 29.97 in    
Wind  
Wind Speed 6 mph (South)    
Max Wind Speed 17 mph    
Max Gust Speed 24 mph    
Visibility 8 miles    
Events      
T = Trace of Precipitation, MM = Missing Value Source: NWS Daily Summary

Daily Weather History Graph

Daily Weather History Graph

Search for Another Location

Airport:

Trip Planner

Search our weather history database for the weather conditions in past years. The results will help you decide how hot, cold, wet, or windy it might be!

Date:

Astronomy

May. 04, 2013 Rise Set
Actual Time 6:14 AM CDT 7:47 PM CDT
Civil Twilight 5:48 AM CDT 8:13 PM CDT
Nautical Twilight 5:16 AM CDT 8:45 PM CDT
Astronomical Twilight 4:43 AM CDT 9:18 PM CDT
Moon 2:55 AM CDT (5/4) 3:01 PM CDT (5/4)
Length of Visible Light 14h 25m
Length of Day
13h 32m
Waning Crescent, 27% of the Moon is Illuminated
May 4
Waning Crescent
May 9
New
May 17
First Quarter
May 24
Full
May 31
Last Quarter

Hourly Weather History & Observations

Time (CDT) Temp. Windchill Dew Point Humidity Pressure Visibility Wind Dir Wind Speed Gust Speed Precip Events Conditions
12:53 AM 39.0 °F 36.8 °F 37.0 °F 93% 30.05 in 7.0 mi South 3.5 mph - N/A   Clear
1:53 AM 41.0 °F 39.0 °F 39.0 °F 93% 30.03 in 7.0 mi South 3.5 mph - N/A   Clear
2:08 AM 39.2 °F - 37.4 °F 93% 30.00 in 1.5 mi Calm Calm - N/A   Clear
2:18 AM 41.0 °F - 39.2 °F 93% 30.00 in 3.0 mi Calm Calm - N/A   Clear
2:53 AM 41.0 °F 39.0 °F 39.0 °F 93% 30.01 in 8.0 mi South 3.5 mph - N/A   Clear
3:53 AM 39.9 °F - 37.9 °F 93% 30.01 in 8.0 mi Calm Calm - N/A   Clear
4:07 AM 37.4 °F 34.9 °F 37.4 °F 100% 29.98 in 1.8 mi SE 3.5 mph - N/A   Clear
4:17 AM 39.2 °F 35.9 °F 37.4 °F 93% 29.98 in 3.0 mi SSE 4.6 mph - N/A   Clear
4:48 AM 39.2 °F - 37.4 °F 93% 29.98 in 1.8 mi Calm Calm - N/A   Clear
4:53 AM 39.0 °F - 37.0 °F 93% 30.01 in 1.2 mi Calm Calm - N/A   Clear
5:01 AM 37.4 °F - 37.4 °F 100% 29.98 in 3.0 mi Calm Calm - N/A   Clear
5:20 AM 39.2 °F 37.0 °F 37.4 °F 93% 29.98 in 4.0 mi South 3.5 mph - N/A   Clear
5:53 AM 39.0 °F - 37.0 °F 93% 30.01 in 7.0 mi Calm Calm - N/A   Clear
6:53 AM 41.0 °F 37.1 °F 39.9 °F 96% 30.02 in 10.0 mi SSE 5.8 mph - N/A   Clear
7:53 AM 46.9 °F - 43.0 °F 86% 30.03 in 10.0 mi SSE 10.4 mph - N/A   Clear
8:53 AM 50.0 °F - 45.0 °F 83% 30.03 in 10.0 mi SSE 10.4 mph - N/A   Clear
9:53 AM 54.0 °F - 45.0 °F 72% 30.01 in 10.0 mi South 9.2 mph - N/A   Clear
10:53 AM 59.0 °F - 46.0 °F 62% 30.01 in 10.0 mi SSW 6.9 mph - N/A   Clear
11:53 AM 62.1 °F - 44.1 °F 52% 29.99 in 10.0 mi Variable 5.8 mph 16.1 mph N/A   Clear
12:53 PM 66.9 °F - 44.1 °F 44% 29.95 in 10.0 mi Variable 6.9 mph - N/A   Clear
1:53 PM 69.1 °F - 39.0 °F 33% 29.92 in 10.0 mi West 13.8 mph 20.7 mph N/A   Scattered Clouds
2:53 PM 69.1 °F - 37.9 °F 32% 29.91 in 10.0 mi WSW 9.2 mph 16.1 mph N/A   Clear
3:53 PM 68.0 °F - 39.9 °F 36% 29.88 in 10.0 mi SW 6.9 mph - N/A   Mostly Cloudy
4:53 PM 66.9 °F - 39.0 °F 36% 29.87 in 10.0 mi SSW 4.6 mph - N/A   Overcast
5:53 PM 66.0 °F - 44.1 °F 45% 29.86 in 10.0 mi Calm Calm - N/A   Overcast
6:53 PM 62.1 °F - 50.0 °F 65% 29.87 in 10.0 mi NW 11.5 mph 18.4 mph N/A   Overcast
7:53 PM 57.9 °F - 44.1 °F 60% 29.92 in 10.0 mi North 12.7 mph - 0.00 in   Overcast
8:53 PM 57.0 °F - 44.1 °F 62% 29.94 in 10.0 mi NE 9.2 mph - 0.00 in   Overcast
9:53 PM 54.0 °F - 45.0 °F 72% 29.95 in 10.0 mi Calm Calm - N/A   Mostly Cloudy
10:53 PM 50.0 °F - 46.9 °F 89% 29.95 in 10.0 mi Calm Calm - N/A   Mostly Cloudy
11:53 PM 48.9 °F - 46.0 °F 90% 29.95 in 10.0 mi WSW 3.5 mph - N/A   Overcast